Volver al catálogo

COSMOS 1275 DEB

ActivoPO
NORAD 42098·DEBRIS·🇷🇺 Russia

Lanzado Jun 4, 1981 desde Plesetsk Cosmodrome

Loading…

Próximos Pases (próximas 24 horas)

TLE

ActualizadoSource: Space-Track

Época: Sep 14, 2026, 06:45 UTC

1 42098U 81053PJ  26257.28150959  .00001028  00000-0  10955-2 0  9994
2 42098  83.1588 206.0442 0140876  60.6877 300.8267 13.68875484637710

Sigue COSMOS 1275 DEB en tiempo real con AllMySat

Download on the App Store